Weather Roundup
Issued by NWS Chicago, IL

Home | Current Version | Previous Version | Text Only | Print | Product List | Glossary Off
Versions: 1 2 3 4 5 6 7 8 9 10 11 12 13 14 15 16 17 18 19 20 21 22 23 24 25 26 27 28 29 30 31 32 33 34 35 36 37 38 39 40 41 42 43 44 45 46 47 48 49 50

000
NZUS59 KLOT 241507
HRRLOT

CHICAGO AREA WEATHER ROUNDUP
NATIONAL WEATHER SERVICE CHICAGO/ROMEOVILLE IL
1000 AM CDT FRI MAR 24 2017

NOTE: "FAIR" INDICATES FEW OR NO CLOUDS BELOW 12,000 FEET WITH NO
SIGNIFICANT WEATHER AND/OR OBSTRUCTIONS TO VISIBILITY.

* THESE STATIONS ARE NOT UNDER NWS QUALITY CONTROL. THEY ALSO MAY NOT
  REPORT WEATHER SUCH AS PRECIPITATION OR FOG.

ILZ005-006-012>014-019>023-241600-
NORTHEAST ILLINOIS

CITY           SKY/WX    TMP DP  RH WIND       PRES   REMARKS
OHARE          CLOUDY    66  49  54 SW17G24   29.91S
MIDWAY         PTSUNNY   64  49  57 SW18G24   29.94S
AURORA         CLOUDY    66  50  56 SW16G24   29.92F
LANSING*       SUNNY     62  53  71 SW20      29.97S
JOLIET*        SUNNY     66  52  60 SW13G20   29.95S
WAUKEGAN       CLOUDY    61  49  64 SW9       29.89F
DUPAGE AIRPORT CLOUDY    63  51  65 S14       29.91F
WHEELING       MOSUNNY   63  50  62 S14G30    29.91F
KANKAKEE*      SUNNY     65  51  59 S22G28    29.99S
MORRIS*        CLOUDY    66  50  56 SW18      29.93S
LEWIS AIRPORT* SUNNY     64  54  68 SW18      29.94S
NORTHERLY ISL    N/A     62  47  57 S13         N/A
$$

WIZ051-052-058>065-066-070>072-241600-
SOUTHEAST WISCONSIN

CITY           SKY/WX    TMP DP  RH WIND       PRES   REMARKS
MILWAUKEE      CLOUDY    52  42  69 CALM      29.89F
KENOSHA*       CLOUDY    60  47  61 SW10      29.89F
RACINE*        CLOUDY    52  42  69 E6        29.91F
WAUKESHA       PTSUNNY   52  41  66 SW8       29.90S
WEST BEND      PTSUNNY   46  41  81 CALM      29.90R
$$

INZ001>003-010>013-019-020-241600-
NORTHWEST INDIANA

CITY           SKY/WX    TMP DP  RH WIND       PRES   REMARKS
GARY*          PTSUNNY   64  46  52 S14G29    29.96S
MICHIGAN CITY* NOT AVBL
RENSSELAER*    NOT AVBL
VALPARAISO     CLOUDY    65  51  60 SW23G30   30.00S
$$

LMZ740>746-241600-
SOUTHERN LAKE MICHIGAN

STATION/POSITION TIME  SKY/WX   TEMP WIND        PRES    VSBY
                                AIR  DIR/SP/G
                 (UTC)          (F)  (DEG/KT/KT) (MB)    (MI)
HARRISON CRIB    1440            59  210/ 26/ 29   N/A
BURNHAM HARBOR   1500            63  210/ 15/ 16   N/A
CALUMET HARBOR   1442            61  190/ 12/ 23 1013.4S
BURNS HARBOR     1430            60  190/ 21/ 28 1014.9R
MICHIGAN CITY    1440            62  190/ 20/ 23   N/A
$$

ABBREVIATIONS USED IN REMARKS
   TC - TEMPERATURE IN CELSIUS
  WCI - WIND CHILL INDEX
   HX - HEAT INDEX
  VSB - VISIBILITY
$$




USA.gov is the U.S. government's official web portal to all federal, state and local government web resources and services.